Location: Arnolds Mill
(42.3415°N, 73.5951°W)
Time: 11:53:14
(UTC+00:00)

STARLINK-34430 - Pass Details

Date: 23 June 2025
Orbit: 300 x 301 km, 53.2° (Epoch: 26 June)

Event Time Altitude Azimuth Distance (km) Brightness Sun altitude
Exits shadow 05:58:26 19° 346° (NNW) 817 5.2 -22.7°
Drops below altitude 10° 06:00:06 10° 25° (NNE) 1,174 6.4 -22.6°
Sets 06:02:23 0° 45° (NE) 1,996 7.5 -22.5°
